Погода в Санта-Крус

США     36°58′26″N   122°01′51″W
темп.,
°C
ветер,
м/с
пор.,
м/с
влажн.,
%
обл.,
%
осадки,
мм/ч
давл.,
гПа
погр.,
м
19 апреля, пн
пн1923:00+13вюв015327 0.0 102017
02:00+11вюв126813 0.0 102061
05:00+10вюв1172100 0.0 102053
08:00+11юв11795 0.0 1021176
11:00+16ю215912 0.0 1020418
14:00+20юз32455 0.0 1018646
17:00+18вюв12505 0.0 1017455
20:00+13ссз1167100 0.0 101837
20 апреля, вт
вт2023:00+10юз01840 0.0 1018114
02:00+9зюз01904 0.0 101872
05:00+8в119414 0.0 101662
08:00+9вюв0188100 0.0 1016278
11:00+14ю226524 0.0 1015507
14:00+19з45440 0.0 1012883
17:00+15зсз9105620 0.0 1011603
20:00+10сз578314 0.0 1012351
21 апреля, ср
ср2123:00+9с11862 0.0 101265
02:00+8вюв11922 0.0 101179
05:00+9в129284 0.0 1011225
08:00+10вюв128462 0.0 1012312
11:00+15ююз22622 0.0 1012542
14:00+18юз34540 0.0 1011843
17:00+17юз45570 0.0 1010464
20:00+11юз23846 0.0 1010213
22 апреля, чт
чт2223:00+9ююв119041 0.0 1012176
02:00+9ю128944 0.0 1012195
05:00+9ю128946 0.0 1012215
08:00+10ююв238448 0.0 1014430
11:00+14ю326322 0.0 1014531
14:00+15ю43625 0.0 1014463
17:00+15ююз33670 0.0 1013415
20:00+11юз238722 0.0 1014207
23 апреля, пт
пт2323:00+9ююз129320 0.0 1015144
02:00+8юз1294100 0.0 1015152
05:00+8зюз019451 0.0 1015103
08:00+9ююз118775 0.0 1015239
11:00+14ююз33628 0.0 1015649
14:00+15ююз43620 0.0 1015638
17:00+15юз44635 0.0 1015544
20:00+10зюз348326 0.0 1016252